COSMOS 252 DEB, 19479

Orbit data source: Space-Track

COSMOS 252 DEB, 19479 is space debris in LEO originally from a launch on Fri, 01 Nov 1968 UTC launched from the Tyuratam Missile And Space Complex (TTMTR). Debris objects in space refer to the collection of defunct objects orbiting the Earth. Examples of debris include non-operational satellites, rocket bodies, and fragments generated from explosions, collisions, or faulty payload assembly.

Loading next visibility...
Identifier
19479, 1968-097ET
Orbit
LEO
Country
Flag of CISCIS
Related business
Manufacturer
Unknown
Mission
Spacecraft
Bus & Motor
Unknown
Mass
Unknown
Launch date (UTC)
1968-11-01 (57 years ago)
Launch vehicle
Unknown
Launch site
Tyuratam Missile And Space Complex (TTMTR)
Object type
Payload
Rocket body
Debris
Shape & HBR
Unknown shape, 0.1 m
Radar Cross Section
Small (<0.1 m²)

Expand to show TLE details & history
Last TLE update: 4 days ago

TLE from 4 days ago
0 COSMOS 252 DEB
1 19479U 68097ET  26104.19363505  .00002498  00000-0  44718-3 0  9995
2 19479  62.7886 272.8591 0579756  70.3805 295.8855 13.96218033883439
Epoch: 2026-04-14T04:38Z
TLE epoch observation values (Epoch: 2026-04-14T04:38:50.068Z)
Latitude
-0.00005°
Longitude
0.77706°
Altitude
744.83 km
Speed
7.567 km/s
True Right ascension
18h 11m 26s
True Declination
0° 00' 00"
Sunlit
Object was in daylight at epoch
Visualization orbit readout
Latitude
Unknown
Longitude
Unknown
Altitude
Unknown
Speed
Unknown
Apparent Right ascension
Unknown
Apparent Declination
Unknown
Sunlit
N/A
Visualization observer readout
Local Sidereal Time
02:10:36
Azimuth
Unknown
Elevation
Unknown
Doppler factor
Unknown
Orbital elements
Apogee altitude
1,328.084 km
Perigee altitude
483.503 km
Semi-major axis
7,283.93 km
Eccentricity
0.05798
Inclination
62.7886°
RAAN
272.8591°
Arg. of periapsis
70.3805°
True anomaly
289.72546°
Mean anomaly
295.8855°
Eccentric anomaly
292.82383°
Mean motion
3.49136 °/min
Orbital period
103.11 mins
BSTAR
0.00044718
Loading maneuver chart data...
Computing Atmospheric mass density...

Documentation

Showing up to 5 results
|